Temp
8 6 6 6 8 10 9 10 11 13 13 12 14 13 14 16 18 17 17 16 17 18 16 16 15 15 15 15 16 15 15 15 15 15 15 15 15 15 15 16 15 15 15 15
6 6 8 9 9 9 9 10 10 14 14 11 12 13 14 16 16 17 17 17 17 17 16 16 15 15 15 15 15 15 15 15 15 15 15 15 16 16 16 16 15 15 15 15
7 9 10 9 9 9 10 10 11 14 13 12 12 14 15 15 15 16 16 17 17 17 16 16 16 15 15 15 15 15 15 16 16 15 15 15 15 15 15 15 15 15 15 15
8 10 9 9 8 10 11 10 14 13 14 13 11 15 15 15 16 16 16 15 17 17 16 16 16 16 15 15 15 15 16 16 15 16 15 15 15 14 15 15 15 15 15 15
9 9 10 10 11 11 10 12 13 13 13 12 11 13 14 14 15 16 15 15 16 17 17 17 16 16 15 15 15 15 15 15 15 16 15 15 16 16 16 16 16 15 15 15
10 10 11 12 12 12 12 13 13 12 13 13 12 12 13 14 16 15 16 15 16 17 18 17 15 15 15 15 15 15 15 15 15 15 15 16 16 15 15 16 16 15 15 15
12 11 12 13 12 12 12 12 12 12 12 13 12 13 13 14 15 16 15 15 14 17 18 17 15 15 16 15 15 15 15 15 15 15 15 15 15 15 15 15 16 15 15 15
8 8 12 13 13 13 13 12 12 11 12 13 12 13 14 14 15 16 16 15 15 15 16 16 16 16 16 15 14 15 15 15 14 14 14 14 14 13 15 15 16 16 16 15
9 12 12 12 14 14 13 12 13 12 12 13 12 13 15 14 13 16 15 15 15 15 15 15 15 16 16 16 15 15 15 14 14 14 14 14 14 14 15 14 15 16 16 16
10 11 13 13 14 14 13 13 13 12 12 14 13 13 16 14 13 15 15 14 14 14 14 14 14 15 15 15 15 14 15 15 14 14 14 13 14 15 15 15 15 16 16 16
8 10 12 13 12 12 12 12 13 12 12 12 13 14 13 14 14 15 15 15 13 13 14 14 14 14 14 14 14 14 15 15 14 14 14 14 15 15 14 15 16 16 16 16
8 9 10 11 13 12 12 12 12 12 13 10 11 14 14 11 11 13 14 13 13 13 13 13 13 14 13 13 14 15 15 15 14 14 14 14 15 15 15 15 16 16 16 16
8 9 9 10 11 12 12 12 12 11 11 11 11 14 13 11 13 13 13 12 11 11 12 11 11 13 13 13 13 14 15 15 15 15 15 15 15 15 15 16 16 15 15 15
7 7 9 11 12 12 12 12 12 12 11 11 11 14 15 14 15 14 13 12 11 10 10 10 11 12 12 12 13 13 14 15 16 15 15 15 15 15 15 15 15 14 14 14
6 7 8 9 9 10 11 12 11 12 13 13 13 12 14 14 17 15 12 9 8 8 8 10 11 10 10 10 10 11 12 14 15 14 14 14 15 14 14 13 13 13 13 13
4 6 7 8 10 9 10 11 11 12 12 13 12 12 13 13 13 12 11 9 8 7 8 8 9 8 8 9 9 10 11 11 12 12 12 13 12 12 11 11 11 10 10 10
4 6 7 7 9 9 9 10 11 12 11 13 12 15 11 12 11 11 11 9 9 8 7 6 7 8 8 8 8 8 8 9 9 9 9 9 9 9 8 8 8 8 8 8
4 5 7 7 8 9 13 11 11 12 13 10 12 12 12 12 11 9 9 10 9 7 6 5 5 5 6 6 6 6 6 6 6 6 6 6 6 6 6 5 5 5 5 5
2 4 6 8 8 8 11 11 10 11 11 9 9 9 9 7 9 10 4 3 4 6 5 4 5 5 4 5 5 5 5 5 4 3 4 4 4 4 4 4 4 4 4 4
2 3 5 4 7 6 9 9 7 9 10 7 7 7 6 6 9 9 1 0 1 -0 1 1 2 3 3 3 4 3 2 2 2 2 3 3 3 3 3 3 3 3 3 2
3 3 4 5 6 4 6 8 7 10 9 7 6 6 5 6 5 2 -0 -0 -1 -1 -1 -0 1 0 1 2 2 1 1 1 1 1 1 1 1 1 1 1 1 1 1 1
3 3 3 4 5 5 5 6 9 6 6 6 6 6 5 4 3 1 -0 -1 -2 -2 -2 -1 -2 -2 -0 1 2 -0 -0 -0 0 0 0 -0 -0 0 0 0 -0 -0 -0 -0
3 4 3 4 5 6 5 4 1 1 5 7 6 6 5 3 3 2 0 -1 -2 -2 -2 -2 -2 -2 -1 -0 1 -1 -2 -1 -1 -1 -1 -1 -1 -1 -1 -1 -1 -1 -1 -1
1 -2 1 2 4 4 5 2 3 2 3 4 4 4 4 4 3 2 -0 -1 -2 -3 -3 -2 -2 -3 -3 -1 -1 -0 -2 -2 -1 -2 -2 -2 -2 -2 -2 -2 -2 -2 -2 -3
2 1 3 0 2 3 3 2 3 2 3 3 3 3 2 2 2 1 -1 -2 -2 -2 -3 -2 -3 -3 -3 -2 -2 -2 -2 -2 -2 -3 -3 -3 -3 -3 -3 -3 -3 -3 -3 -2
-2 2 4 6 7 5 5 0 -2 0 1 3 3 3 2 1 0 1 -1 -2 -3 -3 -3 -3 -3 -3 -3 -3 -3 -3 -3 -3 -3 -4 -4 -4 -4 -4 -4 -4 -4 -4 -3 -4
Height
757 764 766 759 751 743 743 745 733 717 720 735 722 728 726 718 717 726 730 736 739 744 752 758 763 769 777 783 786 793 800 804 808 813 817 822 825 830 834 838 842 844 847 850
768 762 751 746 744 748 749 745 738 716 724 745 737 733 729 723 722 722 729 734 738 746 752 757 762 768 773 779 785 791 797 803 807 811 815 819 823 828 832 837 839 843 846 850
761 747 743 746 744 746 738 739 732 719 730 738 743 728 727 727 725 728 730 730 736 739 748 754 759 763 770 775 781 787 793 799 804 810 814 819 823 827 831 835 837 840 843 848
751 741 742 744 748 733 728 727 712 721 724 734 744 737 730 730 728 729 736 734 734 739 746 751 754 761 765 772 778 784 789 794 801 807 812 814 816 822 825 830 834 837 841 845
749 743 742 734 729 729 730 713 716 723 727 735 752 748 737 733 731 731 731 736 734 737 741 747 753 757 765 771 775 781 786 792 797 801 807 811 814 819 822 828 833 835 839 842
745 740 737 728 724 725 724 719 722 728 731 739 745 749 739 732 729 736 730 732 733 736 739 746 753 757 764 769 772 776 782 788 792 798 802 806 810 815 820 825 828 831 835 839
737 738 732 729 730 727 725 731 739 745 751 744 746 750 737 722 718 719 723 726 732 733 737 744 750 754 759 765 768 772 777 782 786 793 798 799 806 810 815 820 823 827 830 833
761 763 730 726 727 728 728 734 735 750 743 743 746 735 717 705 707 711 714 721 728 730 732 738 742 748 754 760 764 767 771 776 780 786 792 797 802 807 812 815 818 823 826 830
752 735 727 726 723 723 727 733 728 733 748 740 738 725 702 701 706 703 710 715 718 723 728 732 738 745 751 756 759 763 767 772 777 782 789 793 798 803 806 810 815 818 823 827
738 741 726 725 725 725 729 727 728 733 741 727 731 729 710 707 704 701 702 705 711 717 722 727 733 738 744 750 755 759 762 765 772 778 783 787 793 798 802 806 811 814 818 823
751 741 732 727 730 733 735 737 733 737 737 735 727 716 707 703 702 698 697 701 707 714 719 723 726 732 738 744 748 753 756 762 768 773 778 783 788 794 799 803 805 810 814 817
749 749 740 729 718 720 726 729 731 741 735 746 743 719 704 711 708 702 703 704 708 710 714 718 723 728 733 737 743 747 752 758 764 769 773 778 783 788 793 798 801 805 808 811
755 749 751 738 727 719 720 725 726 734 737 740 745 726 709 709 702 701 703 706 710 713 715 718 722 725 728 733 736 741 747 752 757 764 769 774 778 782 786 790 794 798 801 804
754 752 743 732 720 719 721 718 720 721 737 739 734 718 707 704 699 699 703 705 707 708 712 715 718 721 726 730 733 737 742 746 752 758 763 768 773 777 781 785 789 792 796 798
759 750 740 735 732 729 722 718 721 719 714 716 716 719 706 703 698 698 703 709 712 714 713 709 713 717 720 725 730 734 737 742 747 753 758 763 768 772 776 780 784 787 790 793
768 755 746 738 724 725 721 719 720 715 713 704 712 705 699 696 698 702 701 708 709 710 708 709 710 711 713 717 721 727 733 739 743 748 753 758 763 767 771 776 779 782 785 788
769 757 751 747 729 728 725 712 704 703 704 698 706 682 700 698 701 700 698 703 701 700 701 703 705 708 712 715 717 721 726 732 738 742 747 753 758 762 767 771 774 780 781 785
765 758 750 742 734 726 690 696 695 692 684 698 693 692 694 696 698 700 699 696 695 695 699 702 703 706 710 714 717 721 727 732 738 741 745 751 756 759 764 769 773 776 779 782
766 762 754 739 732 719 692 694 697 696 692 699 700 704 702 705 701 696 704 703 701 698 697 696 698 703 708 712 717 721 727 731 737 743 746 750 755 758 762 766 770 774 778 781
765 765 759 757 736 743 706 702 706 701 701 706 706 708 709 706 701 700 712 709 705 702 700 699 700 703 707 711 715 722 727 732 737 742 746 750 754 757 762 765 768 771 775 779
761 762 755 749 737 737 715 704 704 703 707 707 708 710 710 708 712 713 711 710 707 705 702 701 703 706 709 713 716 722 728 733 736 741 745 750 754 757 762 766 770 772 775 778
750 755 756 750 744 736 710 710 705 710 709 710 709 710 710 711 712 712 710 710 709 709 708 707 706 708 713 717 720 725 730 735 738 741 745 750 754 758 762 765 769 773 776 778
748 735 741 733 722 709 709 712 714 714 711 707 708 707 709 712 712 712 712 711 711 711 711 711 712 714 717 720 723 727 733 736 740 744 747 751 756 759 764 767 769 772 775 778
738 743 742 733 710 710 708 711 711 711 711 708 708 708 709 709 710 712 713 713 713 713 714 715 716 718 722 725 728 731 734 738 741 745 749 754 757 760 764 767 770 773 776 779
727 730 724 732 716 710 707 708 705 706 707 707 708 708 708 709 709 710 712 714 715 716 716 718 719 721 725 727 730 734 737 740 743 747 751 755 758 762 765 768 771 774 777 778
730 719 713 699 693 700 699 704 706 706 707 707 708 707 706 708 708 708 710 711 714 716 719 721 723 722 726 728 731 735 739 742 745 748 752 756 759 763 766 769 772 776 778 781
Wind_Speed
1 2 6 10 8 7 3 5 14 7 8 4 3 6 7 9 14 16 16 15 16 16 9 25 25 27 30 32 34 33 31 32 34 34 32 27 27 26 23 23 23 23 23 23
2 5 7 5 5 5 12 9 10 3 17 5 8 5 4 9 9 18 21 16 17 14 11 17 23 26 31 31 31 33 33 33 34 34 32 26 30 26 26 24 23 24 22 22
2 5 2 2 2 12 8 13 14 7 11 6 5 5 1 2 6 7 13 17 16 18 16 16 19 25 28 30 32 32 33 35 36 33 28 23 26 24 24 26 25 24 23 22
5 1 0 4 9 3 4 14 18 14 6 3 4 2 3 3 9 7 10 11 14 14 11 13 17 22 30 31 30 33 36 36 36 35 31 31 28 20 25 28 26 24 24 23
3 2 4 3 2 3 2 7 12 10 7 5 2 2 2 8 6 10 6 11 15 17 15 14 14 23 23 28 31 31 34 32 33 38 34 31 29 28 23 26 27 25 25 25
4 3 2 3 5 3 5 8 8 4 3 2 3 2 4 7 15 20 16 13 14 15 15 12 14 20 19 24 28 30 32 32 35 35 36 33 26 28 26 27 28 28 27 27
2 3 2 3 4 4 0 4 2 3 3 1 7 4 8 4 9 16 17 17 12 13 15 14 12 18 23 22 25 28 32 31 36 36 38 36 35 32 31 29 31 31 29 30
3 6 3 2 1 2 2 2 1 5 5 3 2 7 6 10 10 9 15 14 13 12 15 18 17 18 22 24 25 28 30 30 33 37 38 38 36 32 34 34 34 33 32 32
3 3 1 5 1 2 2 3 2 4 3 4 5 6 8 3 7 13 15 18 19 19 14 15 15 21 23 24 26 28 28 28 30 34 32 31 33 35 34 31 32 30 30 30
1 3 3 2 4 3 4 4 3 1 4 4 1 4 5 4 11 11 14 17 17 17 16 13 14 24 26 28 25 28 31 33 32 33 32 32 37 35 32 31 29 29 26 28
2 2 2 3 7 7 1 2 1 1 1 2 0 5 5 5 5 13 14 12 10 12 14 14 14 24 28 27 28 28 30 27 27 30 33 32 33 35 31 31 27 27 28 28
2 1 3 9 3 4 6 7 5 3 2 2 2 5 1 7 5 3 7 5 5 9 13 13 14 20 23 26 26 27 27 27 26 26 28 31 34 32 31 32 30 30 31 30
2 3 3 6 5 2 3 6 6 4 3 4 3 4 2 5 3 3 7 6 5 6 6 7 7 11 19 22 25 28 31 31 33 31 29 29 29 31 33 33 32 32 32 31
0 2 5 5 3 1 3 4 5 6 4 5 6 4 5 5 5 3 2 3 5 8 9 7 8 10 15 17 23 26 31 33 33 33 32 31 29 29 29 30 30 29 29 28
1 4 2 6 8 4 4 5 7 11 9 9 6 13 12 4 4 2 3 3 4 5 7 10 11 9 12 17 19 23 29 32 32 33 32 31 31 28 27 26 25 25 25 25
3 4 2 4 8 9 9 8 8 12 7 14 5 11 7 5 2 5 7 7 7 8 11 11 11 12 13 20 23 26 28 30 30 31 31 29 27 25 23 22 21 19 18 18
1 2 1 5 2 3 6 11 16 7 6 8 11 15 7 6 8 8 7 7 10 9 8 12 13 12 14 17 22 25 29 31 30 30 27 26 24 22 20 19 17 18 16 15
2 1 2 3 2 4 2 2 2 14 14 10 7 2 4 5 4 7 6 6 9 7 6 7 7 8 13 16 20 22 24 23 21 22 22 19 19 19 16 15 14 13 13 13
7 1 3 3 3 8 9 3 2 5 5 1 4 2 2 6 4 4 6 6 5 5 5 6 16 19 20 23 23 23 21 20 19 18 18 17 16 17 16 15 14 12 11 9
6 4 3 1 4 7 4 1 1 2 4 3 2 3 3 4 1 1 5 6 7 6 3 5 15 18 19 21 24 22 20 21 20 20 18 16 15 15 14 14 14 13 11 10
4 3 11 9 6 7 7 3 2 3 2 3 2 2 3 1 3 5 6 4 4 5 3 7 12 14 17 21 22 19 18 16 17 17 16 15 13 13 13 13 12 13 14 14
7 7 4 4 4 9 5 2 7 3 0 1 1 2 3 2 4 4 5 5 5 5 5 7 13 15 17 17 18 18 16 15 16 17 17 15 14 13 13 13 12 12 14 15
3 6 5 8 6 3 3 3 1 3 2 3 2 1 0 1 2 2 2 3 3 3 5 8 15 16 14 13 15 19 16 17 18 17 16 15 14 13 13 13 14 14 15 16
4 4 2 2 6 10 10 3 4 6 6 3 3 4 2 4 2 3 2 2 2 4 5 9 15 13 12 11 12 16 19 18 18 18 17 15 15 14 12 12 12 13 14 14
3 7 6 5 9 7 8 7 7 6 4 3 3 3 5 4 5 4 4 4 4 6 7 12 13 14 13 13 13 17 18 18 18 17 16 15 14 14 14 12 11 12 10 10
5 7 5 9 7 5 6 1 2 5 5 3 3 4 3 4 7 3 5 6 9 9 10 10 10 14 14 15 16 16 16 16 18 18 16 16 16 15 14 15 14 9 9 8
Wind_Direction
202 124 219 223 232 286 47 307 294 182 131 268 20 17 313 242 173 163 170 157 164 166 151 160 162 167 171 179 182 188 189 191 189 184 184 188 190 192 196 193 192 190 191 194
10 247 240 242 230 231 256 281 274 201 154 154 330 322 312 199 183 170 172 164 162 157 148 155 163 170 176 177 183 188 193 192 190 189 189 190 192 195 195 196 199 203 204 207
248 271 94 158 292 273 253 240 240 155 134 120 301 339 83 106 143 171 190 165 167 168 165 167 169 178 179 181 185 186 190 194 195 195 194 195 190 194 199 203 202 205 206 206
241 202 107 234 250 313 220 259 166 133 127 114 86 296 100 194 161 163 190 176 173 178 176 173 173 179 187 188 187 190 192 196 198 200 198 194 187 187 201 204 206 207 209 212
305 336 293 289 234 192 316 48 90 93 81 115 88 296 210 183 189 199 200 193 185 187 179 179 181 186 191 188 190 192 193 195 196 202 202 197 196 203 205 209 213 211 212 214
256 275 252 293 347 190 180 94 85 61 85 61 107 69 266 183 175 194 199 197 192 188 189 178 178 172 184 193 192 189 191 188 196 200 203 205 208 206 204 209 210 212 215 218
316 250 196 199 61 318 353 3 47 49 49 105 155 195 239 213 187 186 191 190 188 185 191 195 175 182 188 196 195 189 190 190 194 200 204 207 212 217 212 215 214 213 214 217
148 339 184 266 145 312 108 75 234 155 157 149 201 244 248 222 210 179 179 183 186 190 187 199 201 193 197 201 198 189 188 190 194 200 205 208 211 212 220 223 222 219 220 224
158 245 205 162 156 143 293 303 240 104 142 138 202 263 290 204 224 177 175 182 193 198 192 188 187 196 202 210 207 197 191 193 197 202 204 204 205 214 218 219 224 226 227 230
277 327 184 199 117 238 171 306 339 359 125 235 218 289 240 234 210 200 190 187 192 193 195 190 185 192 198 208 206 200 197 197 205 205 207 202 210 219 225 226 227 227 233 236
281 187 306 127 194 166 118 309 331 143 118 198 323 273 217 262 245 211 206 203 188 190 200 194 193 197 200 201 198 201 198 198 199 201 205 207 215 220 227 229 230 233 235 237
320 289 221 220 249 195 175 188 161 115 227 19 11 293 342 264 261 228 240 222 211 194 193 193 194 190 192 194 196 197 195 195 195 196 201 207 216 220 224 229 231 236 238 239
25 263 322 342 357 360 209 192 155 104 84 196 149 256 316 316 294 250 212 204 189 190 193 189 182 192 196 197 192 190 194 198 204 200 204 210 216 219 222 227 233 234 237 238
353 258 221 203 199 96 204 201 178 157 175 166 206 263 264 290 17 14 267 226 205 187 179 177 181 194 199 199 196 192 194 203 209 205 206 211 215 220 225 229 231 236 238 240
277 251 267 267 262 271 243 237 194 205 211 206 165 208 250 208 237 201 160 199 196 211 214 191 191 180 169 177 191 194 199 202 205 202 206 210 215 218 219 222 226 230 233 239
336 283 316 265 248 239 250 223 223 235 222 240 208 251 211 234 208 257 232 195 215 214 211 212 211 185 181 179 179 186 195 201 197 199 201 205 205 206 208 212 213 217 219 221
229 277 228 259 4 325 278 217 220 221 197 209 221 248 180 226 230 247 255 228 244 234 213 201 201 201 198 192 182 182 186 190 190 192 191 191 193 194 196 201 203 210 210 215
259 234 267 275 355 241 243 298 272 228 238 209 255 133 189 233 254 266 245 226 256 262 235 212 182 164 164 165 166 169 173 175 178 182 182 185 187 186 187 189 192 196 199 202
200 181 287 255 247 318 313 13 180 173 273 152 236 52 296 304 278 271 11 360 323 305 249 204 183 163 161 167 171 168 166 169 172 176 177 179 186 181 181 183 186 190 190 191
180 237 220 308 240 222 256 329 311 272 296 35 28 8 336 334 189 229 350 332 328 335 334 173 168 163 157 161 172 163 159 167 169 177 177 179 183 186 186 186 183 181 181 178
158 197 223 225 252 284 251 256 296 109 208 14 360 355 7 29 245 288 336 357 336 340 8 142 152 148 159 165 168 151 161 163 175 171 169 169 172 177 179 177 178 174 171 169
177 172 194 180 222 264 171 107 182 202 358 317 10 6 328 277 309 310 334 2 27 41 52 118 122 131 148 157 163 152 153 158 164 164 162 161 164 168 171 172 168 170 171 165
219 199 188 194 210 263 240 206 228 159 169 286 281 263 107 257 287 299 328 8 27 64 92 118 119 122 132 145 160 148 149 152 151 151 149 150 154 157 162 165 161 159 165 163
239 161 216 56 257 236 241 243 224 208 226 251 260 296 273 268 238 247 211 175 153 132 125 138 134 126 131 145 155 159 155 158 155 150 150 152 152 149 153 155 159 161 161 159
197 152 188 264 278 283 256 227 218 202 224 239 264 237 251 263 264 214 207 205 188 174 158 165 152 147 149 152 154 159 160 162 157 155 155 153 151 154 148 149 154 155 152 163
190 207 214 245 245 202 252 259 149 142 188 187 260 283 265 234 257 220 212 198 185 181 174 172 171 159 160 161 159 163 167 169 164 159 161 160 157 152 147 140 125 121 123 128